Location: *
(58.4167°N, 22.5000°E)
Time: 09:31:29
(UTC+00:00)

Cosmos 1932 - Pass Details

Date: 22 September 2019
Orbit: 925 x 1004 km, 65.0° (Epoch: 19 October)

Event Time Altitude Azimuth Distance (km) Brightness Sun altitude
Exits shadow 23:14:16 77° 73° (ENE) 1,006 4.5 -30.6°
Drops below altitude 10° 23:20:14 10° 53° (NE) 2,755 7.5 -30.4°
Sets 23:22:50 0° 53° (NE) 3,716 8.3 -30.3°
